Weather History for KPVW - January, 2012

Change the Weather History Date:

Wednesday, January 18, 2012

  Actual Average (KLBB) Record (KLBB)
Temperature  
Mean Temperature 42 °F 40 °F  
Max Temperature 62 °F 54 °F 79 °F (1914)
Min Temperature 21 °F 26 °F -5 °F (1930)
Degree Days  
Heating Degree Days 24 25  
Month to date heating degree days 454  
Since 1 July heating degree days 1852  
Cooling Degree Days 0 0  
Month to date cooling degree days 0  
Year to date cooling degree days 0  
Moisture  
Dew Point 15 °F    
Average Humidity 45    
Maximum Humidity 74    
Minimum Humidity 14    
Precipitation  
Precipitation 0.00 in 0.03 in 0.55 in (1925)
Month to date precipitation 0.34  
Year to date precipitation 0.34  
Snow  
Snow 0.00 in 0.10 in 5.50 in (1925)
Month to date snowfall 1.4  
Since 1 July snowfall 4.6  
Snow Depth -    
Sea Level Pressure  
Sea Level Pressure 30.10 in    
Wind  
Wind Speed 11 mph (SW)    
Max Wind Speed 26 mph    
Max Gust Speed 32 mph    
Visibility 10 miles    
Events      
T = Trace of Precipitation, MM = Missing Value Source: NWS Daily Summary

Daily Weather History Graph

Daily Weather History Graph

Search for Another Location

Airport or City:

Trip Planner

Search our weather history database for the weather conditions in past years. The results will help you decide how hot, cold, wet, or windy it might be!

Date:

Astronomy

Jan. 18, 2012 Rise Set
Actual Time 7:51 AM CST 6:02 PM CST
Civil Twilight 7:24 AM CST 6:29 PM CST
Nautical Twilight 6:54 AM CST 7:00 PM CST
Astronomical Twilight 6:24 AM CST 7:30 PM CST
Moon 3:22 AM CST (1/18) 1:45 PM CST (1/18)
Length of Visible Light 11h 05m
Length of Day
10h 11m
Waning Crescent, 24% of the Moon is Illuminated
Jan 18
Waning Crescent
Jan 23
New
Jan 30
First Quarter
Feb 7
Full
Feb 14
Last Quarter

Hourly Weather History & Observations

Time (CST) Temp. Windchill Dew Point Humidity Pressure Visibility Wind Dir Wind Speed Gust Speed Precip Events Conditions
12:15 AM 23.0 °F 15.8 °F 10.4 °F 59% 30.27 in 10.0 mi SSE 5.8 mph - N/A   Clear
12:35 AM 21.2 °F 12.6 °F 10.4 °F 63% 30.26 in 10.0 mi South 6.9 mph - N/A   Clear
12:55 AM 23.0 °F 15.8 °F 10.4 °F 59% 30.26 in 10.0 mi South 5.8 mph - N/A   Clear
1:15 AM 23.0 °F 13.9 °F 12.2 °F 63% 30.25 in 10.0 mi South 8.1 mph - N/A   Clear
1:35 AM 23.0 °F 15.8 °F 10.4 °F 59% 30.25 in 10.0 mi South 5.8 mph - N/A   Clear
1:55 AM 21.2 °F 12.6 °F 10.4 °F 63% 30.23 in 10.0 mi South 6.9 mph - N/A   Clear
2:35 AM 23.0 °F 15.8 °F 12.2 °F 63% 30.23 in 10.0 mi South 5.8 mph - N/A   Clear
2:55 AM 21.2 °F 13.6 °F 12.2 °F 68% 30.22 in 10.0 mi South 5.8 mph - N/A   Clear
3:15 AM 21.2 °F - 12.2 °F 68% 30.22 in 10.0 mi Calm Calm - N/A   Clear
3:35 AM 21.2 °F 16.4 °F 10.4 °F 63% 30.20 in 10.0 mi SSW 3.5 mph - N/A   Clear
3:55 AM 21.2 °F 11.7 °F 12.2 °F 68% 30.20 in 10.0 mi SSW 8.1 mph - N/A   Clear
4:15 AM 21.2 °F 14.9 °F 12.2 °F 68% 30.20 in 10.0 mi SSW 4.6 mph - N/A   Clear
4:35 AM 21.2 °F 13.6 °F 12.2 °F 68% 30.19 in 10.0 mi SSW 5.8 mph - N/A   Clear
4:55 AM 21.2 °F 11.7 °F 12.2 °F 68% 30.18 in 10.0 mi SSW 8.1 mph - N/A   Clear
5:35 AM 23.0 °F 13.1 °F 14.0 °F 68% 30.20 in 10.0 mi SSW 9.2 mph - N/A   Clear
5:55 AM 23.0 °F 13.9 °F 14.0 °F 68% 30.19 in 10.0 mi SW 8.1 mph - N/A   Clear
6:15 AM 21.2 °F 9.5 °F 14.0 °F 74% 30.17 in 10.0 mi SW 11.5 mph - N/A   Clear
6:35 AM 23.0 °F 13.9 °F 14.0 °F 68% 30.17 in 10.0 mi SW 8.1 mph - N/A   Clear
6:55 AM 23.0 °F 12.4 °F 14.0 °F 68% 30.16 in 10.0 mi SW 10.4 mph - N/A   Clear
7:15 AM 23.0 °F 14.7 °F 14.0 °F 68% 30.18 in 10.0 mi SW 6.9 mph - N/A   Clear
7:35 AM 23.0 °F 13.9 °F 14.0 °F 68% 30.17 in 10.0 mi SW 8.1 mph - N/A   Clear
7:55 AM 23.0 °F 13.1 °F 14.0 °F 68% 30.16 in 10.0 mi SW 9.2 mph - N/A   Clear
8:15 AM 24.8 °F 11.9 °F 17.6 °F 74% 30.15 in 10.0 mi SW 16.1 mph - N/A   Clear
8:35 AM 28.4 °F 16.6 °F 19.4 °F 69% 30.15 in 10.0 mi SW 16.1 mph - N/A   Clear
9:15 AM 30.2 °F 17.4 °F 17.6 °F 60% 30.16 in 10.0 mi SW 20.7 mph 24.2 mph N/A   Clear
9:35 AM 32.0 °F 20.5 °F 17.6 °F 55% 30.16 in 10.0 mi SW 18.4 mph 23.0 mph N/A   Clear
9:55 AM 33.8 °F 22.8 °F 19.4 °F 56% 30.16 in 10.0 mi SW 18.4 mph 25.3 mph N/A   Clear
10:15 AM 35.6 °F 24.0 °F 19.4 °F 52% 30.15 in 10.0 mi SW 23.0 mph 28.8 mph N/A   Clear
10:35 AM 39.2 °F 29.3 °F 21.2 °F 49% 30.15 in 10.0 mi SW 20.7 mph 31.1 mph N/A   Clear
10:55 AM 41.0 °F 32.2 °F 21.2 °F 45% 30.15 in 10.0 mi SW 18.4 mph - N/A   Clear
11:15 AM 42.8 °F 34.8 °F 23.0 °F 46% 30.15 in 2.0 mi WSW 17.3 mph - N/A   Haze
11:35 AM 44.6 °F 36.9 °F 23.0 °F 43% 30.13 in 2.5 mi WSW 18.4 mph - N/A   Haze
11:55 AM 50.0 °F - 26.6 °F 40% 30.11 in 7.0 mi WSW 23.0 mph - N/A   Clear
12:15 PM 50.0 °F - 23.0 °F 35% 30.09 in 10.0 mi WSW 23.0 mph 27.6 mph N/A   Clear
12:35 PM 51.8 °F - 24.8 °F 35% 30.09 in 10.0 mi West 21.9 mph 26.5 mph N/A   Clear
12:55 PM 53.6 °F - 26.6 °F 35% 30.06 in 10.0 mi WSW 19.6 mph 25.3 mph N/A   Clear
1:15 PM 53.6 °F - 26.6 °F 35% 30.05 in 10.0 mi West 15.0 mph - N/A   Clear
1:35 PM 59.0 °F - 21.2 °F 23% 30.04 in 10.0 mi West 24.2 mph 29.9 mph N/A   Clear
2:15 PM 59.0 °F - 19.4 °F 22% 30.00 in 10.0 mi West 24.2 mph 27.6 mph N/A   Clear
2:35 PM 59.0 °F - 17.6 °F 20% 29.99 in 10.0 mi West 23.0 mph 28.8 mph N/A   Clear
2:55 PM 59.0 °F - 15.8 °F 19% 29.99 in 10.0 mi West 18.4 mph 21.9 mph N/A   Clear
3:15 PM 60.8 °F - 14.0 °F 16% 29.98 in 10.0 mi West 23.0 mph 27.6 mph N/A   Clear
3:35 PM 60.8 °F - 14.0 °F 16% 29.97 in 10.0 mi West 26.5 mph 32.2 mph N/A   Clear
3:55 PM 60.8 °F - 14.0 °F 16% 29.97 in 10.0 mi West 23.0 mph 27.6 mph N/A   Clear
4:15 PM 60.8 °F - 14.0 °F 16% 29.96 in 10.0 mi West 24.2 mph 27.6 mph N/A   Clear
4:35 PM 62.6 °F - 12.2 °F 14% 29.97 in 10.0 mi West 23.0 mph 29.9 mph N/A   Clear
4:55 PM 62.6 °F - 12.2 °F 14% 29.97 in 10.0 mi West 23.0 mph 28.8 mph N/A   Clear
5:15 PM 60.8 °F - 10.4 °F 14% 29.96 in 10.0 mi West 18.4 mph 24.2 mph N/A   Clear
5:35 PM 59.0 °F - 10.4 °F 15% 29.95 in 10.0 mi West 12.7 mph - N/A   Clear
5:55 PM 53.6 °F - 12.2 °F 19% 29.94 in 10.0 mi WSW 8.1 mph - N/A   Clear
6:15 PM 53.6 °F - 14.0 °F 21% 29.94 in 10.0 mi WSW 8.1 mph - N/A   Clear
6:35 PM 50.0 °F - 14.0 °F 24% 29.94 in 10.0 mi WSW 10.4 mph - N/A   Clear
6:55 PM 46.4 °F 42.9 °F 14.0 °F 27% 29.94 in 10.0 mi WSW 6.9 mph - N/A   Clear
7:15 PM 48.2 °F - 14.0 °F 25% 29.94 in 10.0 mi WSW 6.9 mph - N/A   Clear
7:35 PM 42.8 °F 37.5 °F 14.0 °F 31% 29.94 in 10.0 mi WSW 9.2 mph - N/A   Clear
7:55 PM 44.6 °F 40.2 °F 14.0 °F 29% 29.94 in 10.0 mi WSW 8.1 mph - N/A   Clear
8:15 PM 42.8 °F 37.5 °F 12.2 °F 29% 29.93 in 10.0 mi SW 9.2 mph - N/A   Clear
8:35 PM 42.8 °F 38.0 °F 14.0 °F 31% 29.92 in 10.0 mi SW 8.1 mph - N/A   Clear
8:55 PM 41.0 °F 34.7 °F 14.0 °F 33% 29.91 in 10.0 mi SW 10.4 mph - N/A   Clear
9:15 PM 44.6 °F 38.8 °F 15.8 °F 31% 29.91 in 10.0 mi WSW 11.5 mph - N/A   Clear
9:35 PM 44.6 °F 38.4 °F 15.8 °F 31% 29.91 in 10.0 mi WSW 12.7 mph - N/A   Clear
9:55 PM 42.8 °F 36.6 °F 14.0 °F 31% 29.90 in 10.0 mi SW 11.5 mph - N/A   Clear
10:15 PM 42.8 °F 37.0 °F 15.8 °F 34% 29.90 in 10.0 mi WSW 10.4 mph - N/A   Clear
10:55 PM 44.6 °F 38.4 °F 17.6 °F 34% 29.88 in 10.0 mi WSW 12.7 mph - N/A   Clear
11:15 PM 42.8 °F 36.2 °F 17.6 °F 36% 29.88 in 10.0 mi WSW 12.7 mph - N/A   Clear
11:35 PM 41.0 °F 34.7 °F 17.6 °F 39% 29.88 in 10.0 mi WSW 10.4 mph - N/A   Clear
11:55 PM 42.8 °F 35.1 °F 17.6 °F 36% 29.87 in 10.0 mi WSW 16.1 mph - N/A   Clear